Delta Virtual Airport Information Service

San Francisco International Airport

ICAO: KSFO Country: United States
Latitude: 37.619 Longitude: -122.374
Latest Arrival : AAL1095 (A) (KLAX-KSFO) Latest Departure : AAL1095 (B) (KSFO-KLAX)


WX CaptureLIVE
Data provided by noaa.gov | Fetched at 03:05:28

METAR : KSFO 300656Z 00000KT 10SM CLR 08/02 A3004 RMK AO2 SLP172 T00780022

TAF : KSFO 300656Z 00000KT 10SM CLR 08/02 A3004 RMK AO2 SLP172 T00780022


Runway Data for KSFO
Data provided by openaviationdata.com

Runway ID Mag Var Hdg Length Elevation Surface ILS Freq ILS Id ILS Slope
01L 15 12° 7506 ft 13 ft Asphalt -- -- --
01R 15 12° 8654 ft 13 ft Asphalt -- -- --
10L 15 102° 11861 ft 13 ft Asphalt -- -- --
10R 15 102° 10594 ft 13 ft Asphalt -- -- --
19L 15 192° 8654 ft 13 ft Asphalt 108.9 ISIA 2
19R 15 192° 7506 ft 13 ft Asphalt -- -- --
28L 15 282° 10594 ft 13 ft Asphalt 109.55 ISFO 3
28R 15 282° 11861 ft 13 ft Asphalt 111.7 IGWQ 3

San Francisco International Airport, United States
Use only for reference purposes



Not for navigational purposes.